Regional Weather Roundup
Issued by NWS

Home | Current Version | Previous Version | Text Only | Print | Product List | Glossary Off
Versions: 1 2 3 4 5 6 7 8 9 10 11 12 13 14 15 16 17 18 19 20 21 22 23 24 25 26 27 28 29 30 31 32 33 34 35 36 37 38 39 40 41 42 43 44 45 46 47 48 49 50

000
ASUS45 KSLC 270610
RWRUT

UTAH REGIONAL WEATHER ROUNDUP
NATIONAL WEATHER SERVICE SALT LAKE CITY UT
1100 PM MST WED NOV 26 2014

UTZ001>011-023>025-270700-

NORTHERN UTAH

CITY           SKY/WX    TMP DP  RH WIND       PRES   REMARKS
BRIGHAM CITY   CLEAR     44  29  56 CALM      30.35S
HILL AFB       CLEAR     42  27  55 SE8       30.35F
LOGAN          CLEAR     34  28  79 SE3       30.33F
OGDEN          CLEAR     41  28  60 S9        30.34F
PROVO AIRPORT  CLEAR     34  28  80 CALM      30.41S
SALT LAKE CITY PTCLDY    44  27  51 SE12      30.35S
VERNAL         MOCLDY    33  25  72 NW6       30.39S WCI  28
WENDOVER       CLEAR     37  27  65 N7        30.32S WCI  32
HEBER CITY     CLEAR     28  25  86 CALM      30.43S
WEST JORDAN    CLEAR     46  34  61 S13       30.37S

$$

UTZ012>022-026-027-270700-

SOUTHERN/CENTRAL UTAH

CITY           SKY/WX    TMP DP  RH WIND       PRES   REMARKS
BLANDING       CLEAR     32  21  62 N3        30.52S
BRYCE CANYON   CLEAR     25  17  72 W13       30.51S WCI  14
CEDAR CITY     PTCLDY    34  17  50 S5        30.43S WCI  30
DELTA          PTCLDY    37  28  69 CALM      30.40F
MILFORD        CLEAR     34  21  59 S10       30.41S WCI  26
MOAB/CYNLANDS  CLEAR     30  14  51 W3        30.42R
PRICE          CLEAR     35  23  61 N7        30.42S WCI  29
ST GEORGE      CLEAR     45  12  26 CALM      30.40S
KANAB          CLEAR     32  18  55 NE8       30.48R WCI  25

$$

REGIONAL REPORTS     COLORADO/ARIZONA

CITY           SKY/WX    TMP DP  RH WIND       PRES   REMARKS
CRAIG, CO      MOCLDY    29  24  82 SE5       30.41S WCI  24
GRAND JUNCTION PTCLDY    31  23  72 E7        30.44R WCI  24
RIFLE          PTCLDY    25  21  85 S3        30.48R
MONTROSE       CLEAR     27  22  81 S5        30.48R WCI  22
CORTEZ         CLEAR     26  19  74 NE9       30.47R WCI  17
PAGE, AZ       CLEAR     43  19  38 CALM      30.42R HAZE
GRAND CANYON   PTCLDY    21   7  54 CALM      30.49R
KINGMAN        PTCLDY    39  16  39 CALM      30.35R
FLAGSTAFF      PTCLDY    24  12  60 NE3       30.48S

$$

REGIONAL REPORTS    NEVADA/IDAHO/WYOMING

CITY           SKY/WX    TMP DP  RH WIND       PRES   REMARKS
LAS VEGAS, NV  CLEAR     54  20  26 SW8       30.28S
ELY            CLEAR     28  13  53 S13       30.46S WCI  17
ELKO           CLEAR     35  29  78 NE3       30.34S
POCATELLO, ID  CLEAR     51  29  42 S12       30.25F
BURLEY         MOCLDY    49  29  46 S16       30.23F
EVANSTON, WY   PTCLDY    33  22  63 SW12      30.39S WCI  24
ROCK SPRINGS   CLOUDY    38  23  55 SW9G17    30.36F WCI  31

$$



USA.gov is the U.S. government's official web portal to all federal, state and local government web resources and services.